N605NK KDFW-KMZJ

Flight info

Callsign N605NK
Flight time 2h 3m
Altitude 38000
Route WSTEX2 CIKAN BGS SUMMY MOLLY SSO HOTTT SECBO
Aircraft A320/M-SDE3FGHIRWY/LB1

Departure

Time 2026-05-07 17:42
Airport Dallas Fort Worth International Airport (KDFW)

Arrival

Time 2026-05-07 19:45
Airport Pinal Airpark (KMZJ)
Time Latitude Longitude Altitude Speed Heading
2026-05-07 17:18 32.88655 -97.03687 585 ft 0 kts 112°
2026-05-07 17:36 32.88653 -97.03673 585 ft 4 kts 91°
2026-05-07 17:36 32.88679 -97.03641 585 ft 8 kts 30°
2026-05-07 17:36 32.88714 -97.03583 585 ft 10 kts 109°
2026-05-07 17:36 32.88646 -97.03561 585 ft 12 kts 179°
2026-05-07 17:37 32.88601 -97.03602 584 ft 10 kts 267°
2026-05-07 17:37 32.88602 -97.03697 587 ft 12 kts 271°
2026-05-07 17:37 32.88604 -97.03797 593 ft 12 kts 270°
2026-05-07 17:37 32.88604 -97.03917 601 ft 17 kts 270°
2026-05-07 17:38 32.88604 -97.04073 601 ft 21 kts 270°
2026-05-07 17:38 32.88605 -97.04264 600 ft 26 kts 271°
2026-05-07 17:38 32.88607 -97.04452 592 ft 17 kts 270°
2026-05-07 17:38 32.88607 -97.04611 590 ft 21 kts 270°
2026-05-07 17:39 32.88606 -97.04771 588 ft 15 kts 269°
2026-05-07 17:39 32.88602 -97.04885 589 ft 11 kts 246°
2026-05-07 17:39 32.88536 -97.04892 590 ft 14 kts 180°
2026-05-07 17:39 32.88401 -97.04893 589 ft 22 kts 180°
2026-05-07 17:40 32.88233 -97.04892 590 ft 26 kts 180°
2026-05-07 17:40 32.88050 -97.04895 588 ft 19 kts 183°
2026-05-07 17:40 32.87940 -97.04897 586 ft 12 kts 179°
2026-05-07 17:40 32.87923 -97.04966 586 ft 9 kts 274°
2026-05-07 17:41 32.87929 -97.05056 587 ft 12 kts 276°
2026-05-07 17:41 32.87990 -97.05091 589 ft 12 kts
2026-05-07 17:41 32.88173 -97.05090 591 ft 61 kts
2026-05-07 17:41 32.88869 -97.05086 587 ft 135 kts
2026-05-07 17:42 32.89934 -97.05077 1003 ft 160 kts
2026-05-07 17:42 32.91086 -97.05060 1780 ft 168 kts
2026-05-07 17:42 32.92273 -97.05093 2530 ft 181 kts 359°
2026-05-07 17:42 32.93637 -97.05160 3177 ft 205 kts 359°
2026-05-07 17:43 32.95110 -97.05473 3769 ft 232 kts 343°
2026-05-07 17:43 32.96702 -97.06137 4768 ft 244 kts 340°
2026-05-07 17:43 32.98284 -97.06830 5948 ft 247 kts 337°
2026-05-07 17:43 32.99746 -97.07877 7031 ft 250 kts 313°
2026-05-07 17:44 33.00720 -97.09585 8110 ft 251 kts 290°
2026-05-07 17:44 33.01025 -97.11623 9254 ft 253 kts 268°
2026-05-07 17:44 33.00909 -97.13722 10417 ft 253 kts 266°
2026-05-07 17:44 33.00779 -97.15814 11514 ft 253 kts 266°
2026-05-07 17:45 33.00633 -97.17919 12420 ft 263 kts 265°
2026-05-07 17:45 33.00423 -97.20184 12843 ft 287 kts 264°
2026-05-07 17:45 33.00133 -97.22637 13171 ft 312 kts 258°
2026-05-07 17:45 32.99265 -97.25120 13424 ft 341 kts 241°
2026-05-07 17:46 32.97786 -97.27451 13857 ft 360 kts 236°
2026-05-07 17:46 32.96232 -97.29815 14562 ft 365 kts 236°
2026-05-07 17:46 32.94663 -97.32212 15321 ft 368 kts 237°
2026-05-07 17:46 32.93088 -97.34633 16032 ft 372 kts 236°
2026-05-07 17:47 32.91500 -97.37085 16756 ft 376 kts 236°
2026-05-07 17:47 32.89920 -97.39526 17469 ft 380 kts 236°
2026-05-07 17:47 32.88296 -97.42027 18184 ft 383 kts 236°
2026-05-07 17:47 32.86657 -97.44544 18822 ft 387 kts 236°
2026-05-07 17:48 32.85003 -97.47080 19480 ft 389 kts 236°
2026-05-07 17:48 32.83335 -97.49636 20116 ft 392 kts 236°
2026-05-07 17:48 32.81660 -97.52203 20612 ft 394 kts 236°
2026-05-07 17:48 32.79976 -97.54780 21187 ft 396 kts 236°
2026-05-07 17:49 32.78280 -97.57376 21716 ft 398 kts 236°
2026-05-07 17:49 32.76583 -97.59980 22232 ft 400 kts 236°
2026-05-07 17:49 32.74874 -97.62604 22706 ft 402 kts 236°
2026-05-07 17:49 32.73155 -97.65236 23187 ft 404 kts 236°
2026-05-07 17:50 32.71423 -97.67883 23659 ft 406 kts 236°
2026-05-07 17:50 32.69735 -97.70576 24046 ft 406 kts 241°
2026-05-07 17:50 32.68439 -97.73525 24449 ft 403 kts 250°
2026-05-07 17:50 32.67630 -97.76705 24898 ft 402 kts 259°
2026-05-07 17:51 32.67289 -97.79998 25307 ft 403 kts 264°
2026-05-07 17:51 32.67043 -97.83317 25703 ft 404 kts 264°
2026-05-07 17:51 32.66792 -97.86639 26058 ft 404 kts 263°
2026-05-07 17:51 32.66536 -97.89971 26386 ft 405 kts 263°
2026-05-07 17:52 32.66273 -97.93293 26687 ft 406 kts 263°
2026-05-07 17:52 32.66003 -97.96638 26959 ft 406 kts 263°
2026-05-07 17:52 32.65735 -97.99980 27311 ft 405 kts 262°
2026-05-07 17:52 32.65473 -98.03257 27693 ft 403 kts 262°
2026-05-07 17:53 32.65210 -98.06566 28106 ft 401 kts 262°
2026-05-07 17:53 32.64949 -98.09851 28543 ft 399 kts 262°
2026-05-07 17:53 32.64691 -98.13117 28997 ft 396 kts 261°
2026-05-07 17:53 32.64433 -98.16361 29457 ft 394 kts 261°
2026-05-07 17:54 32.64170 -98.19583 29938 ft 391 kts 261°
2026-05-07 17:54 32.63941 -98.22394 30333 ft 389 kts 261°
2026-05-07 17:54 32.63681 -98.25584 30742 ft 387 kts 261°
2026-05-07 17:54 32.63426 -98.28748 31148 ft 385 kts 261°
2026-05-07 17:55 32.63172 -98.31903 31559 ft 383 kts 261°
2026-05-07 17:55 32.62920 -98.35033 31979 ft 381 kts 261°
2026-05-07 17:55 32.62668 -98.38166 32382 ft 380 kts 260°
2026-05-07 17:55 32.62415 -98.41283 32797 ft 379 kts 260°
2026-05-07 17:56 32.62159 -98.44396 33223 ft 378 kts 260°
2026-05-07 17:56 32.61903 -98.47483 33684 ft 376 kts 260°
2026-05-07 17:56 32.61647 -98.50569 34142 ft 374 kts 260°
2026-05-07 17:56 32.61394 -98.53591 34542 ft 372 kts 260°
2026-05-07 17:57 32.61138 -98.56636 34958 ft 371 kts 260°
2026-05-07 17:57 32.60964 -98.58689 35249 ft 370 kts 260°
2026-05-07 17:57 32.60624 -98.62698 35826 ft 367 kts 260°
2026-05-07 17:57 32.60368 -98.65742 36254 ft 365 kts 261°
2026-05-07 17:58 32.60123 -98.68693 36672 ft 364 kts 261°
2026-05-07 17:58 32.59875 -98.71669 37088 ft 362 kts 261°
2026-05-07 17:58 32.59625 -98.74644 37485 ft 361 kts 260°
2026-05-07 17:58 32.59374 -98.77596 37879 ft 359 kts 260°
2026-05-07 17:59 32.59120 -98.80547 38116 ft 359 kts 260°
2026-05-07 17:59 32.58869 -98.83493 38160 ft 358 kts 261°
2026-05-07 17:59 32.58372 -98.89363 38160 ft 357 kts 260°
2026-05-07 18:00 32.57871 -98.95220 38159 ft 357 kts 260°
2026-05-07 18:00 32.57356 -99.01070 38154 ft 357 kts 260°
2026-05-07 18:01 32.56840 -99.06934 38131 ft 357 kts 260°
2026-05-07 18:01 32.56330 -99.12804 38147 ft 358 kts 260°
2026-05-07 18:02 32.55555 -99.21620 38143 ft 359 kts 260°
2026-05-07 18:03 32.55037 -99.27475 38147 ft 359 kts 260°
2026-05-07 18:03 32.54505 -99.33363 38148 ft 360 kts 260°
2026-05-07 18:04 32.54097 -99.39277 38150 ft 361 kts 262°
2026-05-07 18:04 32.53782 -99.45215 38156 ft 361 kts 262°
2026-05-07 18:05 32.53452 -99.51152 38150 ft 361 kts 261°
2026-05-07 18:05 32.53097 -99.57105 38154 ft 362 kts 261°
2026-05-07 18:06 32.52735 -99.63049 38159 ft 362 kts 261°
2026-05-07 18:06 32.52369 -99.68997 38162 ft 362 kts 261°
2026-05-07 18:07 32.51994 -99.74952 38162 ft 362 kts 261°
2026-05-07 18:07 32.51620 -99.80897 38147 ft 362 kts 261°
2026-05-07 18:08 32.51242 -99.86928 38155 ft 362 kts 261°
2026-05-07 18:08 32.50931 -99.91883 38151 ft 363 kts 261°
2026-05-07 18:09 32.50556 -99.97847 38148 ft 363 kts 261°
2026-05-07 18:09 32.50100 -100.04778 38145 ft 363 kts 261°
2026-05-07 18:10 32.49707 -100.10737 38147 ft 363 kts 261°
2026-05-07 18:10 32.49383 -100.15737 38142 ft 363 kts 261°
2026-05-07 18:11 32.49001 -100.21660 38142 ft 363 kts 261°
2026-05-07 18:11 32.48605 -100.27630 38136 ft 364 kts 261°
2026-05-07 18:12 32.48193 -100.33595 38200 ft 364 kts 260°
2026-05-07 18:12 32.47729 -100.39560 38203 ft 363 kts 260°
2026-05-07 18:13 32.47242 -100.45516 38207 ft 363 kts 260°
2026-05-07 18:13 32.46757 -100.51474 38206 ft 364 kts 260°
2026-05-07 18:14 32.46269 -100.57437 38198 ft 364 kts 260°
2026-05-07 18:14 32.45785 -100.63403 38184 ft 364 kts 259°
2026-05-07 18:15 32.45296 -100.69377 38173 ft 365 kts 259°
2026-05-07 18:15 32.44800 -100.75360 38158 ft 365 kts 259°
2026-05-07 18:16 32.44301 -100.81338 38142 ft 365 kts 259°
2026-05-07 18:16 32.43802 -100.87318 38146 ft 365 kts 259°
2026-05-07 18:17 32.43305 -100.93260 38148 ft 365 kts 259°
2026-05-07 18:17 32.42802 -100.99240 38145 ft 365 kts 259°
2026-05-07 18:18 32.42296 -101.05221 38143 ft 365 kts 259°
2026-05-07 18:18 32.41798 -101.11204 38135 ft 365 kts 259°
2026-05-07 18:19 32.41286 -101.17184 38124 ft 365 kts 259°
2026-05-07 18:19 32.40765 -101.23159 38120 ft 365 kts 259°
2026-05-07 18:20 32.40244 -101.29137 38122 ft 365 kts 259°
2026-05-07 18:20 32.39724 -101.35108 38122 ft 366 kts 259°
2026-05-07 18:21 32.39201 -101.41101 38124 ft 366 kts 259°
2026-05-07 18:21 32.38674 -101.47087 38121 ft 366 kts 259°
2026-05-07 18:22 32.38171 -101.53083 38120 ft 367 kts 259°
2026-05-07 18:22 32.37714 -101.59093 38120 ft 367 kts 259°
2026-05-07 18:23 32.37262 -101.65100 38115 ft 367 kts 259°
2026-05-07 18:23 32.36795 -101.71114 38120 ft 367 kts 259°
2026-05-07 18:24 32.36320 -101.77122 38114 ft 367 kts 259°
2026-05-07 18:24 32.35841 -101.83139 38113 ft 367 kts 259°
2026-05-07 18:25 32.35359 -101.89153 38114 ft 367 kts 259°
2026-05-07 18:25 32.34872 -101.95173 38115 ft 368 kts 259°
2026-05-07 18:26 32.34387 -102.01152 38121 ft 368 kts 259°
2026-05-07 18:26 32.33897 -102.07172 38131 ft 368 kts 259°
2026-05-07 18:27 32.33402 -102.13193 38131 ft 368 kts 259°
2026-05-07 18:27 32.32906 -102.19223 38118 ft 368 kts 258°
2026-05-07 18:28 32.32408 -102.25254 38114 ft 368 kts 259°
2026-05-07 18:28 32.31904 -102.31281 38114 ft 369 kts 258°
2026-05-07 18:29 32.31397 -102.37315 38115 ft 369 kts 258°
2026-05-07 18:29 32.30894 -102.43344 38123 ft 369 kts 258°
2026-05-07 18:30 32.30385 -102.49381 38115 ft 369 kts 258°
2026-05-07 18:30 32.29873 -102.55417 38124 ft 369 kts 258°
2026-05-07 18:31 32.29352 -102.61440 38125 ft 369 kts 258°
2026-05-07 18:31 32.28830 -102.67473 38117 ft 369 kts 258°
2026-05-07 18:32 32.28308 -102.73497 38116 ft 369 kts 258°
2026-05-07 18:32 32.27788 -102.79488 38127 ft 369 kts 258°
2026-05-07 18:33 32.27265 -102.85521 38118 ft 369 kts 258°
2026-05-07 18:33 32.26727 -102.91549 38110 ft 369 kts 258°
2026-05-07 18:34 32.26186 -102.97584 38107 ft 369 kts 258°
2026-05-07 18:34 32.25651 -103.03619 38107 ft 369 kts 258°
2026-05-07 18:35 32.25107 -103.09650 38105 ft 369 kts 258°
2026-05-07 18:35 32.24567 -103.15679 38102 ft 369 kts 258°
2026-05-07 18:36 32.24022 -103.21714 38106 ft 369 kts 258°
2026-05-07 18:36 32.23469 -103.27754 38103 ft 370 kts 258°
2026-05-07 18:37 32.22922 -103.33795 38102 ft 370 kts 258°
2026-05-07 18:37 32.22377 -103.39793 38098 ft 370 kts 258°
2026-05-07 18:38 32.21823 -103.45837 38094 ft 370 kts 258°
2026-05-07 18:38 32.21259 -103.51875 38105 ft 370 kts 257°
2026-05-07 18:39 32.20682 -103.57922 38101 ft 371 kts 257°
2026-05-07 18:39 32.20110 -103.63965 38098 ft 371 kts 257°
2026-05-07 18:40 32.19542 -103.70025 38099 ft 371 kts 257°
2026-05-07 18:40 32.18972 -103.76081 38097 ft 371 kts 257°
2026-05-07 18:41 32.18394 -103.82139 38095 ft 371 kts 257°
2026-05-07 18:41 32.17809 -103.88193 38109 ft 371 kts 257°
2026-05-07 18:42 32.17222 -103.94253 38101 ft 372 kts 257°
2026-05-07 18:42 32.16636 -104.00313 38097 ft 372 kts 257°
2026-05-07 18:43 32.16048 -104.06375 38147 ft 372 kts 257°
2026-05-07 18:43 32.15457 -104.12443 38158 ft 372 kts 257°
2026-05-07 18:44 32.14858 -104.18504 38166 ft 372 kts 257°
2026-05-07 18:44 32.14258 -104.24536 38179 ft 372 kts 257°
2026-05-07 18:45 32.13653 -104.30610 38168 ft 373 kts 257°
2026-05-07 18:45 32.13046 -104.36689 38156 ft 373 kts 257°
2026-05-07 18:46 32.12438 -104.42772 38143 ft 374 kts 257°
2026-05-07 18:46 32.11828 -104.48858 38128 ft 374 kts 257°
2026-05-07 18:47 32.11216 -104.54944 38103 ft 374 kts 257°
2026-05-07 18:47 32.10587 -104.61031 38087 ft 373 kts 257°
2026-05-07 18:48 32.09956 -104.67118 38073 ft 374 kts 257°
2026-05-07 18:48 32.09330 -104.73199 38071 ft 374 kts 257°
2026-05-07 18:49 32.08706 -104.79293 38071 ft 374 kts 257°
2026-05-07 18:49 32.08081 -104.85382 38073 ft 374 kts 257°
2026-05-07 18:50 32.07448 -104.91474 38078 ft 374 kts 257°
2026-05-07 18:50 32.06813 -104.97570 38066 ft 374 kts 257°
2026-05-07 18:51 32.06176 -105.03623 38054 ft 375 kts 257°
2026-05-07 18:51 32.05529 -105.09760 38035 ft 375 kts 257°
2026-05-07 18:52 32.04882 -105.15822 38035 ft 375 kts 257°
2026-05-07 18:52 32.04231 -105.21925 38031 ft 375 kts 257°
2026-05-07 18:53 32.03572 -105.28028 38028 ft 375 kts 256°
2026-05-07 18:53 32.02909 -105.34136 38033 ft 376 kts 256°
2026-05-07 18:54 32.02247 -105.40261 38027 ft 377 kts 256°
2026-05-07 18:54 32.01581 -105.46393 38025 ft 377 kts 256°
2026-05-07 18:55 32.01024 -105.51544 38023 ft 378 kts 256°
2026-05-07 18:55 32.00352 -105.57679 38025 ft 378 kts 256°
2026-05-07 18:56 31.99673 -105.63818 38027 ft 378 kts 256°
2026-05-07 18:56 31.98984 -105.69973 38031 ft 379 kts 256°
2026-05-07 18:57 31.98974 -105.76259 38021 ft 391 kts 267°
2026-05-07 18:57 31.99495 -105.82639 38006 ft 392 kts 267°
2026-05-07 18:58 32.00006 -105.89031 38008 ft 392 kts 267°
2026-05-07 18:58 32.00506 -105.95424 37991 ft 392 kts 267°
2026-05-07 18:59 32.00999 -106.01823 38024 ft 393 kts 267°
2026-05-07 18:59 32.01496 -106.08246 38020 ft 394 kts 267°
2026-05-07 19:00 32.02000 -106.14638 38038 ft 395 kts 267°
2026-05-07 19:00 32.02505 -106.21087 38054 ft 395 kts 267°
2026-05-07 19:01 32.03001 -106.27548 38077 ft 395 kts 267°
2026-05-07 19:01 32.03485 -106.33996 38082 ft 396 kts 267°
2026-05-07 19:02 32.03968 -106.40469 38078 ft 397 kts 267°
2026-05-07 19:02 32.04459 -106.46962 38048 ft 398 kts 267°
2026-05-07 19:03 32.04949 -106.53472 38050 ft 399 kts 267°
2026-05-07 19:03 32.05425 -106.59986 38095 ft 399 kts 267°
2026-05-07 19:04 32.05896 -106.66471 38089 ft 400 kts 267°
2026-05-07 19:04 32.06375 -106.73056 38093 ft 401 kts 267°
2026-05-07 19:05 32.06932 -106.79597 38066 ft 405 kts 269°
2026-05-07 19:05 32.07567 -106.86244 38037 ft 406 kts 269°
2026-05-07 19:06 32.08179 -106.92814 38054 ft 407 kts 268°
2026-05-07 19:06 32.09064 -107.02782 38052 ft 407 kts 268°
2026-05-07 19:07 32.09651 -107.09434 38043 ft 409 kts 269°
2026-05-07 19:07 32.10242 -107.16112 38007 ft 410 kts 269°
2026-05-07 19:08 32.10831 -107.22801 37977 ft 410 kts 268°
2026-05-07 19:08 32.11410 -107.29507 37948 ft 411 kts 268°
2026-05-07 19:09 32.11991 -107.36221 37960 ft 412 kts 268°
2026-05-07 19:09 32.12568 -107.42937 38009 ft 413 kts 269°
2026-05-07 19:10 32.13144 -107.49690 38024 ft 414 kts 269°
2026-05-07 19:10 32.13721 -107.56463 38057 ft 415 kts 269°
2026-05-07 19:11 32.14288 -107.63242 38092 ft 415 kts 269°
2026-05-07 19:11 32.14859 -107.70026 38111 ft 416 kts 269°
2026-05-07 19:12 32.15429 -107.76831 38125 ft 417 kts 269°
2026-05-07 19:12 32.15989 -107.83653 37932 ft 419 kts 269°
2026-05-07 19:13 32.16552 -107.90507 37928 ft 420 kts 269°
2026-05-07 19:13 32.17111 -107.97331 37931 ft 421 kts 269°
2026-05-07 19:14 32.17669 -108.04202 37939 ft 421 kts 269°
2026-05-07 19:14 32.18222 -108.11088 37943 ft 421 kts 269°
2026-05-07 19:15 32.18770 -108.17972 37950 ft 422 kts 269°
2026-05-07 19:15 32.19314 -108.24870 37953 ft 422 kts 269°
2026-05-07 19:16 32.19861 -108.31762 37962 ft 422 kts 269°
2026-05-07 19:16 32.20402 -108.38657 37998 ft 422 kts 269°
2026-05-07 19:17 32.20931 -108.45561 38049 ft 423 kts 269°
2026-05-07 19:17 32.21462 -108.52496 38050 ft 424 kts 269°
2026-05-07 19:18 32.21998 -108.59437 38070 ft 426 kts 269°
2026-05-07 19:18 32.22532 -108.66412 38090 ft 426 kts 269°
2026-05-07 19:19 32.23061 -108.73389 38099 ft 427 kts 269°
2026-05-07 19:19 32.23324 -108.76889 37924 ft 427 kts 269°
2026-05-07 19:19 32.23585 -108.80386 37941 ft 428 kts 269°
2026-05-07 19:20 32.24106 -108.87395 37936 ft 430 kts 269°
2026-05-07 19:20 32.24628 -108.94450 37917 ft 432 kts 269°
2026-05-07 19:21 32.25143 -109.01475 37908 ft 433 kts 269°
2026-05-07 19:21 32.25660 -109.08575 37914 ft 434 kts 269°
2026-05-07 19:22 32.26174 -109.15688 37921 ft 436 kts 269°
2026-05-07 19:22 32.26676 -109.22833 37907 ft 438 kts 269°
2026-05-07 19:23 32.27483 -109.30000 37911 ft 443 kts 275°
2026-05-07 19:23 32.28587 -109.37173 37911 ft 444 kts 275°
2026-05-07 19:24 32.29682 -109.44358 37916 ft 444 kts 274°
2026-05-07 19:24 32.30225 -109.47956 37814 ft 446 kts 275°
2026-05-07 19:24 32.30766 -109.51566 37546 ft 448 kts 275°
2026-05-07 19:25 32.31313 -109.55206 37288 ft 449 kts 275°
2026-05-07 19:25 32.31862 -109.58847 37028 ft 450 kts 275°
2026-05-07 19:25 32.32411 -109.62492 36771 ft 451 kts 275°
2026-05-07 19:25 32.32959 -109.66150 36520 ft 452 kts 275°
2026-05-07 19:26 32.33507 -109.69823 36273 ft 453 kts 275°
2026-05-07 19:26 32.34053 -109.73499 36026 ft 454 kts 275°
2026-05-07 19:26 32.34598 -109.77179 35782 ft 455 kts 275°
2026-05-07 19:26 32.35147 -109.80868 35567 ft 456 kts 276°
2026-05-07 19:27 32.35701 -109.84574 35325 ft 461 kts 276°
2026-05-07 19:27 32.36256 -109.88318 35086 ft 464 kts 276°
2026-05-07 19:27 32.36812 -109.92091 34851 ft 466 kts 276°
2026-05-07 19:27 32.37367 -109.95874 34618 ft 467 kts 276°
2026-05-07 19:28 32.37925 -109.99667 34389 ft 469 kts 276°
2026-05-07 19:28 32.38486 -110.03470 34160 ft 470 kts 276°
2026-05-07 19:28 32.39049 -110.07289 33927 ft 471 kts 276°
2026-05-07 19:28 32.39609 -110.11109 33469 ft 471 kts 276°
2026-05-07 19:29 32.40158 -110.14893 32251 ft 475 kts 278°
2026-05-07 19:29 32.40715 -110.18758 31008 ft 479 kts 278°
2026-05-07 19:29 32.41279 -110.22661 29782 ft 482 kts 279°
2026-05-07 19:29 32.41849 -110.26577 28363 ft 484 kts 279°
2026-05-07 19:30 32.42422 -110.30509 26999 ft 485 kts 279°
2026-05-07 19:30 32.42993 -110.34444 25724 ft 486 kts 280°
2026-05-07 19:30 32.43562 -110.38385 24488 ft 485 kts 279°
2026-05-07 19:30 32.44124 -110.42316 23262 ft 483 kts 279°
2026-05-07 19:31 32.44682 -110.46227 21904 ft 480 kts 279°
2026-05-07 19:31 32.45233 -110.50106 20628 ft 477 kts 279°
2026-05-07 19:31 32.45781 -110.53962 19398 ft 473 kts 279°
2026-05-07 19:31 32.46322 -110.57773 18575 ft 465 kts 279°
2026-05-07 19:32 32.46858 -110.61527 18220 ft 462 kts 279°
2026-05-07 19:32 32.47390 -110.65266 17651 ft 455 kts 279°
2026-05-07 19:32 32.47910 -110.68935 16675 ft 449 kts 279°
2026-05-07 19:32 32.48424 -110.72563 15992 ft 445 kts 279°
2026-05-07 19:33 32.48932 -110.76158 15327 ft 439 kts 279°
2026-05-07 19:33 32.49426 -110.79667 14675 ft 426 kts 279°
2026-05-07 19:33 32.49907 -110.83088 14051 ft 416 kts 279°
2026-05-07 19:33 32.50375 -110.86431 13417 ft 406 kts 279°
2026-05-07 19:34 32.50831 -110.89691 12748 ft 396 kts 279°
2026-05-07 19:34 32.51266 -110.92831 12095 ft 386 kts 279°
2026-05-07 19:34 32.51693 -110.95934 11466 ft 377 kts 279°
2026-05-07 19:34 32.52110 -110.98976 10838 ft 370 kts 279°
2026-05-07 19:35 32.52517 -111.01954 10217 ft 360 kts 279°
2026-05-07 19:35 32.52734 -111.04772 10065 ft 325 kts 272°
2026-05-07 19:35 32.52832 -111.07319 10016 ft 301 kts 273°
2026-05-07 19:35 32.52943 -111.09769 9816 ft 294 kts 274°
2026-05-07 19:36 32.53057 -111.12179 9555 ft 291 kts 273°
2026-05-07 19:36 32.53172 -111.14569 9299 ft 290 kts 273°
2026-05-07 19:36 32.53282 -111.16951 9045 ft 288 kts 273°
2026-05-07 19:36 32.53385 -111.19297 8819 ft 282 kts 273°
2026-05-07 19:37 32.53483 -111.21594 8576 ft 277 kts 272°
2026-05-07 19:37 32.53579 -111.23851 8328 ft 272 kts 274°
2026-05-07 19:37 32.53784 -111.25299 8173 ft 269 kts 289°
2026-05-07 19:37 32.54945 -111.27507 7872 ft 263 kts 310°
2026-05-07 19:38 32.56129 -111.29141 7624 ft 259 kts 312°
2026-05-07 19:38 32.56912 -111.30193 7472 ft 256 kts 312°
2026-05-07 19:38 32.58104 -111.31787 7009 ft 261 kts 312°
2026-05-07 19:38 32.59304 -111.33379 6462 ft 257 kts 312°
2026-05-07 19:39 32.60494 -111.34941 5893 ft 253 kts 312°
2026-05-07 19:39 32.61661 -111.36475 5355 ft 248 kts 312°
2026-05-07 19:39 32.62794 -111.37968 4940 ft 238 kts 312°
2026-05-07 19:39 32.63873 -111.39416 4521 ft 230 kts 308°
2026-05-07 19:40 32.64543 -111.41087 4163 ft 222 kts 282°
2026-05-07 19:40 32.64532 -111.42858 3866 ft 212 kts 257°
2026-05-07 19:40 32.63902 -111.44400 3656 ft 206 kts 232°
2026-05-07 19:40 32.62828 -111.45449 3602 ft 196 kts 208°
2026-05-07 19:41 32.61551 -111.45885 3535 ft 191 kts 186°
2026-05-07 19:41 32.60249 -111.45709 3499 ft 189 kts 162°
2026-05-07 19:41 32.59110 -111.44951 3480 ft 189 kts 139°
2026-05-07 19:41 32.58305 -111.43733 3437 ft 187 kts 116°
2026-05-07 19:42 32.57946 -111.42396 3339 ft 157 kts 101°
2026-05-07 19:42 32.57712 -111.41210 3130 ft 140 kts 102°
2026-05-07 19:42 32.57367 -111.40158 2927 ft 136 kts 124°
2026-05-07 19:42 32.56715 -111.39362 2717 ft 134 kts 136°
2026-05-07 19:43 32.56064 -111.38587 2580 ft 133 kts 133°
2026-05-07 19:43 32.55436 -111.37794 2467 ft 132 kts 134°
2026-05-07 19:43 32.54786 -111.37023 2383 ft 133 kts 133°
2026-05-07 19:43 32.54130 -111.36260 2308 ft 132 kts 134°
2026-05-07 19:44 32.53482 -111.35486 2184 ft 133 kts 134°
2026-05-07 19:44 32.52820 -111.34710 2145 ft 135 kts 133°
2026-05-07 19:44 32.52157 -111.33921 2015 ft 135 kts 134°
2026-05-07 19:44 32.51496 -111.33142 1890 ft 131 kts 134°
2026-05-07 19:45 32.50988 -111.32539 1891 ft 71 kts 135°
2026-05-07 19:45 32.50677 -111.32173 1898 ft 58 kts 135°
2026-05-07 19:45 32.50451 -111.31906 1892 ft 38 kts 135°
2026-05-07 19:45 32.50381 -111.31771 1902 ft 13 kts 44°
2026-05-07 19:46 32.50454 -111.31698 1901 ft 13 kts 17°
2026-05-07 19:46 32.50540 -111.31763 1898 ft 17 kts 318°
2026-05-07 19:46 32.50621 -111.31837 1896 ft 11 kts
2026-05-07 19:46 32.50668 -111.31790 1901 ft 3 kts 45°
2026-05-07 19:47 32.50673 -111.31785 1897 ft 0 kts 45°